Time,TemperatureF,DewpointF,PressureIn,WindDirection,WindDirectionDegrees,WindSpeedMPH,WindSpeedGustMPH,Humidity,HourlyPrecipIn,Conditions,Clouds,dailyrainin,SoftwareType,DateUTC
2013-02-22 00:00:00,64.8,64.2,29.89,North,32767,0.0,0.0,98,0.00,,,0.00,Wunderground v.1.15,2013-02-22 06:00:00,
2013-02-22 00:05:00,64.7,64.1,29.88,North,32767,0.0,0.0,98,0.00,,,0.00,Wunderground v.1.15,2013-02-22 06:05:00,
2013-02-22 00:15:00,64.7,64.1,29.88,North,32767,0.0,0.0,98,0.00,,,0.00,Wunderground v.1.15,2013-02-22 06:15:00,
2013-02-22 00:20:00,64.7,64.1,29.87,North,32767,0.0,0.0,98,0.00,,,0.00,Wunderground v.1.15,2013-02-22 06:20:00,
2013-02-22 00:25:00,64.7,64.1,29.87,North,32767,0.0,0.0,98,0.00,,,0.00,Wunderground v.1.15,2013-02-22 06:25:00,
2013-02-22 00:30:00,64.7,64.1,29.87,North,32767,0.0,0.0,98,0.00,,,0.00,Wunderground v.1.15,2013-02-22 06:30:00,
2013-02-22 00:35:00,64.7,64.1,29.87,North,32767,0.0,0.0,98,0.00,,,0.00,Wunderground v.1.15,2013-02-22 06:35:00,
2013-02-22 00:40:00,64.7,64.1,29.87,North,32767,0.0,0.0,98,0.00,,,0.00,Wunderground v.1.15,2013-02-22 06:40:00,
2013-02-22 00:45:00,64.7,64.1,29.86,North,32767,0.0,0.0,98,0.00,,,0.00,Wunderground v.1.15,2013-02-22 06:45:00,
2013-02-22 00:50:00,64.8,64.2,29.86,North,32767,0.0,0.0,98,0.00,,,0.00,Wunderground v.1.15,2013-02-22 06:50:00,
2013-02-22 00:55:00,64.9,64.3,29.86,North,32767,0.0,0.0,98,0.00,,,0.00,Wunderground v.1.15,2013-02-22 06:55:00,
2013-02-22 01:00:00,65.0,64.4,29.86,North,32767,0.0,0.0,98,0.00,,,0.00,Wunderground v.1.15,2013-02-22 07:00:00,
2013-02-22 01:05:00,65.2,64.6,29.86,North,32767,0.0,0.0,98,0.00,,,0.00,Wunderground v.1.15,2013-02-22 07:05:00,
2013-02-22 01:10:00,65.2,64.6,29.86,North,32767,0.0,0.0,98,0.00,,,0.00,Wunderground v.1.15,2013-02-22 07:10:00,
2013-02-22 01:15:00,65.3,64.7,29.86,North,32767,0.0,0.0,98,0.00,,,0.00,Wunderground v.1.15,2013-02-22 07:15:00,
2013-02-22 01:20:00,65.3,64.7,29.86,North,32767,0.0,0.0,98,0.00,,,0.00,Wunderground v.1.15,2013-02-22 07:20:00,
2013-02-22 01:25:00,65.3,64.7,29.86,North,32767,0.0,0.0,98,0.00,,,0.00,Wunderground v.1.15,2013-02-22 07:25:00,
2013-02-22 01:30:00,65.3,64.7,29.85,North,32767,0.0,0.0,98,0.00,,,0.00,Wunderground v.1.15,2013-02-22 07:30:00,
2013-02-22 01:35:00,65.4,64.8,29.85,North,32767,0.0,0.0,98,0.00,,,0.00,Wunderground v.1.15,2013-02-22 07:35:00,
2013-02-22 01:40:00,65.5,64.9,29.85,North,32767,0.0,0.0,98,0.00,,,0.00,Wunderground v.1.15,2013-02-22 07:40:00,
2013-02-22 01:45:00,65.6,65.0,29.85,North,32767,0.0,0.0,98,0.00,,,0.00,Wunderground v.1.15,2013-02-22 07:45:00,
2013-02-22 01:50:00,65.7,65.1,29.85,North,32767,0.0,0.0,98,0.00,,,0.00,Wunderground v.1.15,2013-02-22 07:50:00,
2013-02-22 01:55:00,65.6,65.0,29.85,North,32767,0.0,0.0,98,0.00,,,0.00,Wunderground v.1.15,2013-02-22 07:55:00,
2013-02-22 02:00:00,65.5,64.9,29.85,North,32767,0.0,0.0,98,0.00,,,0.00,Wunderground v.1.15,2013-02-22 08:00:00,
2013-02-22 02:05:00,65.2,64.6,29.85,North,32767,0.0,0.0,98,0.00,,,0.00,Wunderground v.1.15,2013-02-22 08:05:00,
2013-02-22 02:10:00,65.0,64.4,29.85,North,32767,0.0,0.0,98,0.00,,,0.00,Wunderground v.1.15,2013-02-22 08:10:00,
2013-02-22 02:15:00,64.7,64.1,29.85,North,32767,0.0,0.0,98,0.00,,,0.00,Wunderground v.1.15,2013-02-22 08:15:00,
2013-02-22 02:20:00,64.5,63.9,29.85,North,32767,0.0,0.0,98,0.00,,,0.00,Wunderground v.1.15,2013-02-22 08:20:00,
2013-02-22 02:25:00,64.2,63.6,29.85,North,32767,0.0,0.0,98,0.00,,,0.00,Wunderground v.1.15,2013-02-22 08:25:00,
2013-02-22 02:30:00,64.0,63.4,29.85,North,32767,0.0,0.0,98,0.00,,,0.00,Wunderground v.1.15,2013-02-22 08:30:00,
2013-02-22 02:40:00,63.8,63.2,29.85,North,32767,0.0,0.0,98,0.00,,,0.00,Wunderground v.1.15,2013-02-22 08:40:00,
2013-02-22 02:45:00,63.6,63.0,29.85,North,32767,0.0,0.0,98,0.00,,,0.00,Wunderground v.1.15,2013-02-22 08:45:00,
2013-02-22 02:50:00,63.5,62.9,29.85,North,32767,0.0,0.0,98,0.00,,,0.00,Wunderground v.1.15,2013-02-22 08:50:00,
2013-02-22 03:00:00,63.4,62.8,29.86,North,32767,0.0,0.0,98,0.00,,,0.00,Wunderground v.1.15,2013-02-22 09:00:00,
2013-02-22 03:05:00,63.9,63.3,29.86,North,32767,0.0,0.0,98,0.00,,,0.00,Wunderground v.1.15,2013-02-22 09:05:00,
2013-02-22 03:10:00,66.6,66.0,29.86,North,32767,0.0,0.0,98,0.00,,,0.00,Wunderground v.1.15,2013-02-22 09:10:00,
2013-02-22 03:15:00,66.3,65.7,29.85,North,32767,0.0,0.0,98,0.36,,,0.01,Wunderground v.1.15,2013-02-22 09:15:00,
2013-02-22 03:20:00,65.8,65.2,29.86,North,32767,0.0,0.0,98,0.13,,,0.03,Wunderground v.1.15,2013-02-22 09:20:00,
2013-02-22 03:25:00,65.4,64.8,29.86,North,32767,0.0,0.0,98,0.06,,,0.03,Wunderground v.1.15,2013-02-22 09:25:00,
2013-02-22 03:30:00,65.2,64.6,29.86,North,32767,0.0,0.0,98,0.04,,,0.03,Wunderground v.1.15,2013-02-22 09:30:00,
2013-02-22 03:35:00,65.1,64.5,29.86,North,32767,0.0,0.0,98,0.00,,,0.03,Wunderground v.1.15,2013-02-22 09:35:00,
2013-02-22 03:40:00,64.9,64.3,29.86,North,32767,0.0,0.0,98,0.00,,,0.03,Wunderground v.1.15,2013-02-22 09:40:00,
2013-02-22 03:45:00,64.7,64.1,29.86,North,32767,0.0,0.0,98,0.00,,,0.03,Wunderground v.1.15,2013-02-22 09:45:00,
2013-02-22 03:50:00,64.5,63.9,29.86,North,32767,0.0,0.0,98,0.00,,,0.03,Wunderground v.1.15,2013-02-22 09:50:00,
2013-02-22 03:55:00,64.4,63.8,29.85,North,32767,0.0,0.0,98,0.00,,,0.03,Wunderground v.1.15,2013-02-22 09:55:00,
2013-02-22 04:00:00,64.4,63.8,29.85,North,32767,0.0,0.0,98,0.00,,,0.03,Wunderground v.1.15,2013-02-22 10:00:00,
2013-02-22 04:05:00,64.4,63.8,29.86,North,32767,0.0,0.0,98,0.00,,,0.03,Wunderground v.1.15,2013-02-22 10:05:00,
2013-02-22 04:10:00,64.5,63.9,29.85,North,32767,0.0,0.0,98,0.00,,,0.03,Wunderground v.1.15,2013-02-22 10:10:00,
2013-02-22 04:15:00,64.6,64.0,29.86,North,32767,0.0,0.0,98,0.00,,,0.03,Wunderground v.1.15,2013-02-22 10:15:00,
2013-02-22 04:20:00,64.6,64.0,29.86,North,32767,0.0,0.0,98,0.00,,,0.03,Wunderground v.1.15,2013-02-22 10:20:00,
2013-02-22 04:25:00,64.6,64.0,29.86,North,32767,0.0,0.0,98,0.00,,,0.03,Wunderground v.1.15,2013-02-22 10:25:00,
2013-02-22 04:30:00,64.6,64.0,29.86,North,32767,0.0,0.0,98,0.00,,,0.03,Wunderground v.1.15,2013-02-22 10:30:00,
2013-02-22 04:35:00,64.6,64.0,29.86,North,32767,0.0,0.0,98,0.00,,,0.03,Wunderground v.1.15,2013-02-22 10:35:00,
2013-02-22 04:40:00,64.6,64.0,29.86,North,32767,0.0,0.0,98,0.00,,,0.03,Wunderground v.1.15,2013-02-22 10:40:00,
2013-02-22 04:45:00,64.8,64.2,29.86,North,32767,0.0,0.0,98,0.00,,,0.03,Wunderground v.1.15,2013-02-22 10:45:00,
2013-02-22 04:50:00,64.8,64.2,29.87,North,32767,0.0,0.0,98,0.00,,,0.04,Wunderground v.1.15,2013-02-22 10:50:00,
2013-02-22 04:55:00,64.8,64.2,29.87,North,32767,0.0,0.0,98,0.14,,,0.06,Wunderground v.1.15,2013-02-22 10:55:00,
2013-02-22 05:00:00,64.8,64.2,29.87,North,32767,0.0,0.0,98,0.06,,,0.06,Wunderground v.1.15,2013-02-22 11:00:00,
2013-02-22 05:05:00,64.8,64.2,29.87,North,32767,0.0,0.0,98,0.04,,,0.06,Wunderground v.1.15,2013-02-22 11:05:00,
2013-02-22 05:10:00,64.8,64.2,29.88,North,32767,0.0,0.0,98,0.00,,,0.06,Wunderground v.1.15,2013-02-22 11:10:00,
2013-02-22 05:15:00,64.9,64.3,29.88,North,32767,0.0,0.0,98,0.00,,,0.06,Wunderground v.1.15,2013-02-22 11:15:00,
2013-02-22 05:25:00,64.9,64.3,29.88,North,32767,0.0,0.0,98,0.00,,,0.06,Wunderground v.1.15,2013-02-22 11:25:00,
2013-02-22 05:30:00,65.1,64.5,29.88,North,32767,0.0,0.0,98,0.00,,,0.06,Wunderground v.1.15,2013-02-22 11:30:00,
2013-02-22 05:35:00,65.4,64.8,29.88,North,32767,0.0,0.0,98,0.00,,,0.06,Wunderground v.1.15,2013-02-22 11:35:00,
2013-02-22 05:40:00,65.5,64.9,29.89,North,32767,0.0,0.0,98,0.00,,,0.06,Wunderground v.1.15,2013-02-22 11:40:00,
2013-02-22 05:45:00,65.6,65.0,29.89,North,32767,0.0,0.0,98,0.00,,,0.07,Wunderground v.1.15,2013-02-22 11:45:00,
2013-02-22 05:55:00,65.6,65.0,29.89,North,32767,0.0,0.0,98,0.00,,,0.07,Wunderground v.1.15,2013-02-22 11:55:00,
2013-02-22 06:00:00,65.5,64.9,29.90,North,32767,0.0,0.0,98,0.04,,,0.07,Wunderground v.1.15,2013-02-22 12:00:00,
2013-02-22 06:05:00,65.4,64.8,29.90,North,32767,0.0,0.0,98,0.04,,,0.08,Wunderground v.1.15,2013-02-22 12:05:00,
2013-02-22 06:10:00,65.4,64.8,29.90,North,32767,0.0,0.0,98,0.04,,,0.08,Wunderground v.1.15,2013-02-22 12:10:00,
2013-02-22 06:15:00,65.3,64.7,29.90,North,32767,0.0,0.0,98,0.04,,,0.08,Wunderground v.1.15,2013-02-22 12:15:00,
2013-02-22 06:20:00,65.3,64.7,29.90,North,32767,0.0,0.0,98,0.00,,,0.08,Wunderground v.1.15,2013-02-22 12:20:00,
2013-02-22 06:25:00,65.2,64.6,29.91,North,32767,0.0,0.0,98,0.00,,,0.09,Wunderground v.1.15,2013-02-22 12:25:00,
2013-02-22 06:30:00,65.1,64.5,29.91,North,32767,0.0,0.0,98,0.00,,,0.09,Wunderground v.1.15,2013-02-22 12:30:00,
2013-02-22 06:35:00,65.1,64.5,29.91,North,32767,0.0,0.0,98,0.00,,,0.09,Wunderground v.1.15,2013-02-22 12:35:00,
2013-02-22 06:40:00,65.1,64.5,29.91,North,32767,0.0,0.0,98,0.00,,,0.09,Wunderground v.1.15,2013-02-22 12:40:00,
2013-02-22 06:45:00,65.0,64.4,29.91,North,32767,0.0,0.0,98,0.00,,,0.09,Wunderground v.1.15,2013-02-22 12:45:00,
2013-02-22 06:50:00,65.0,64.4,29.92,North,32767,0.0,0.0,98,0.00,,,0.09,Wunderground v.1.15,2013-02-22 12:50:00,
2013-02-22 06:55:00,65.0,64.4,29.92,North,32767,0.0,0.0,98,0.00,,,0.09,Wunderground v.1.15,2013-02-22 12:55:00,
2013-02-22 07:00:00,64.9,64.3,29.92,North,32767,0.0,0.0,98,0.00,,,0.09,Wunderground v.1.15,2013-02-22 13:00:00,
2013-02-22 07:05:00,64.9,64.3,29.93,North,32767,0.0,0.0,98,0.00,,,0.09,Wunderground v.1.15,2013-02-22 13:05:00,
2013-02-22 07:15:00,64.9,64.3,29.92,North,32767,0.0,0.0,98,0.00,,,0.09,Wunderground v.1.15,2013-02-22 13:15:00,
2013-02-22 07:20:00,65.0,64.4,29.92,North,32767,0.0,0.0,98,0.00,,,0.09,Wunderground v.1.15,2013-02-22 13:20:00,
2013-02-22 07:25:00,65.0,64.4,29.93,North,32767,0.0,0.0,98,0.00,,,0.09,Wunderground v.1.15,2013-02-22 13:25:00,
2013-02-22 07:30:00,65.0,64.4,29.93,North,32767,0.0,0.0,98,0.00,,,0.09,Wunderground v.1.15,2013-02-22 13:30:00,
2013-02-22 07:35:00,65.1,64.5,29.93,North,32767,0.0,0.0,98,0.00,,,0.09,Wunderground v.1.15,2013-02-22 13:35:00,
2013-02-22 07:40:00,65.1,64.5,29.93,North,32767,0.0,0.0,98,0.00,,,0.09,Wunderground v.1.15,2013-02-22 13:40:00,
2013-02-22 07:45:00,65.2,64.6,29.93,North,32767,0.0,0.0,98,0.00,,,0.09,Wunderground v.1.15,2013-02-22 13:45:00,
2013-02-22 07:50:00,65.2,64.6,29.93,North,32767,0.0,0.0,98,0.00,,,0.09,Wunderground v.1.15,2013-02-22 13:50:00,
2013-02-22 07:55:00,65.3,64.7,29.94,North,32767,0.0,0.0,98,0.00,,,0.09,Wunderground v.1.15,2013-02-22 13:55:00,
2013-02-22 08:00:00,65.2,64.6,29.93,North,32767,0.0,0.0,98,0.00,,,0.09,Wunderground v.1.15,2013-02-22 14:00:00,
2013-02-22 08:05:00,65.2,64.6,29.94,North,32767,0.0,0.0,98,0.00,,,0.09,Wunderground v.1.15,2013-02-22 14:05:00,
2013-02-22 08:10:00,65.2,64.6,29.94,North,32767,0.0,0.0,98,0.00,,,0.09,Wunderground v.1.15,2013-02-22 14:10:00,
2013-02-22 08:15:00,65.2,64.6,29.94,North,32767,0.0,0.0,98,0.00,,,0.09,Wunderground v.1.15,2013-02-22 14:15:00,
2013-02-22 08:20:00,65.2,64.6,29.94,North,32767,0.0,0.0,98,0.00,,,0.09,Wunderground v.1.15,2013-02-22 14:20:00,
2013-02-22 08:25:00,65.2,64.6,29.94,North,32767,0.0,0.0,98,0.00,,,0.09,Wunderground v.1.15,2013-02-22 14:25:00,
2013-02-22 08:30:00,65.3,64.7,29.94,North,32767,0.0,0.0,98,0.00,,,0.09,Wunderground v.1.15,2013-02-22 14:30:00,
2013-02-22 08:35:00,65.3,64.7,29.95,North,32767,0.0,0.0,98,0.00,,,0.09,Wunderground v.1.15,2013-02-22 14:35:00,
2013-02-22 08:40:00,65.3,64.7,29.95,North,32767,0.0,0.0,98,0.00,,,0.09,Wunderground v.1.15,2013-02-22 14:40:00,
2013-02-22 08:45:00,65.3,64.7,29.95,North,32767,0.0,0.0,98,0.00,,,0.09,Wunderground v.1.15,2013-02-22 14:45:00,
2013-02-22 08:55:00,65.3,64.7,29.95,North,32767,0.0,0.0,98,0.00,,,0.09,Wunderground v.1.15,2013-02-22 14:55:00,
2013-02-22 09:00:00,65.4,64.8,29.95,North,32767,0.0,0.0,98,0.00,,,0.09,Wunderground v.1.15,2013-02-22 15:00:00,
2013-02-22 09:05:00,65.6,65.0,29.94,North,32767,0.0,0.0,98,0.00,,,0.09,Wunderground v.1.15,2013-02-22 15:05:00,
2013-02-22 09:10:00,65.7,65.1,29.94,North,32767,0.0,0.0,98,0.00,,,0.09,Wunderground v.1.15,2013-02-22 15:10:00,
2013-02-22 09:15:00,65.7,65.1,29.94,North,32767,0.0,0.0,98,0.00,,,0.09,Wunderground v.1.15,2013-02-22 15:15:00,
2013-02-22 09:20:00,65.7,65.1,29.93,North,32767,0.0,0.0,98,0.00,,,0.09,Wunderground v.1.15,2013-02-22 15:20:00,
2013-02-22 09:25:00,65.8,65.2,29.93,North,32767,0.0,0.0,98,0.00,,,0.09,Wunderground v.1.15,2013-02-22 15:25:00,
2013-02-22 09:30:00,65.8,65.2,29.94,North,32767,0.0,0.0,98,0.00,,,0.09,Wunderground v.1.15,2013-02-22 15:30:00,
2013-02-22 09:35:00,65.7,65.1,29.94,North,32767,0.0,0.0,98,0.00,,,0.09,Wunderground v.1.15,2013-02-22 15:35:00,
2013-02-22 09:40:00,65.6,65.0,29.94,North,32767,0.0,0.0,98,0.00,,,0.09,Wunderground v.1.15,2013-02-22 15:40:00,
2013-02-22 09:45:00,65.4,64.5,29.95,North,32767,0.0,0.0,97,0.00,,,0.09,Wunderground v.1.15,2013-02-22 15:45:00,
2013-02-22 09:50:00,65.4,64.5,29.94,North,32767,0.0,0.0,97,0.00,,,0.09,Wunderground v.1.15,2013-02-22 15:50:00,
2013-02-22 09:55:00,65.6,64.7,29.95,North,32767,0.0,0.0,97,0.00,,,0.09,Wunderground v.1.15,2013-02-22 15:55:00,
2013-02-22 10:00:00,65.7,64.8,29.95,North,32767,0.0,0.0,97,0.00,,,0.09,Wunderground v.1.15,2013-02-22 16:00:00,
2013-02-22 10:05:00,65.4,63.6,29.95,North,32767,0.0,0.0,94,0.00,,,0.09,Wunderground v.1.15,2013-02-22 16:05:00,
2013-02-22 10:10:00,65.1,63.0,29.94,North,32767,0.0,0.0,93,0.00,,,0.09,Wunderground v.1.15,2013-02-22 16:10:00,
2013-02-22 10:15:00,64.9,62.5,29.94,North,32767,0.0,0.0,92,0.00,,,0.09,Wunderground v.1.15,2013-02-22 16:15:00,
2013-02-22 10:20:00,64.7,62.3,29.94,North,32767,0.0,0.0,92,0.00,,,0.09,Wunderground v.1.15,2013-02-22 16:20:00,
2013-02-22 10:25:00,64.7,61.7,29.94,North,32767,0.0,0.0,90,0.00,,,0.09,Wunderground v.1.15,2013-02-22 16:25:00,
2013-02-22 10:30:00,64.6,61.3,29.95,North,32767,0.0,0.0,89,0.00,,,0.09,Wunderground v.1.15,2013-02-22 16:30:00,
2013-02-22 10:35:00,64.4,61.4,29.95,North,32767,0.0,0.0,90,0.00,,,0.09,Wunderground v.1.15,2013-02-22 16:35:00,
2013-02-22 10:40:00,64.2,61.2,29.95,North,32767,0.0,0.0,90,0.00,,,0.09,Wunderground v.1.15,2013-02-22 16:40:00,
2013-02-22 10:45:00,63.9,61.2,29.96,North,32767,0.0,0.0,91,0.00,,,0.10,Wunderground v.1.15,2013-02-22 16:45:00,
2013-02-22 10:50:00,63.6,61.5,29.96,North,32767,0.0,0.0,93,0.00,,,0.10,Wunderground v.1.15,2013-02-22 16:50:00,
2013-02-22 10:55:00,63.4,61.3,29.96,North,32767,0.0,0.0,93,0.00,,,0.10,Wunderground v.1.15,2013-02-22 16:55:00,
2013-02-22 11:00:00,63.4,61.6,29.96,North,32767,0.0,0.0,94,0.00,,,0.10,Wunderground v.1.15,2013-02-22 17:00:00,
2013-02-22 11:05:00,63.4,61.6,29.95,North,32767,0.0,0.0,94,0.00,,,0.10,Wunderground v.1.15,2013-02-22 17:05:00,
2013-02-22 11:10:00,63.6,62.1,29.95,North,32767,0.0,0.0,95,0.00,,,0.10,Wunderground v.1.15,2013-02-22 17:10:00,
2013-02-22 11:15:00,64.1,62.3,29.95,North,32767,0.0,0.0,94,0.00,,,0.10,Wunderground v.1.15,2013-02-22 17:15:00,
2013-02-22 11:20:00,64.6,62.5,29.95,North,32767,0.0,0.0,93,0.00,,,0.10,Wunderground v.1.15,2013-02-22 17:20:00,
2013-02-22 11:25:00,64.8,62.4,29.95,North,32767,0.0,0.0,92,0.00,,,0.10,Wunderground v.1.15,2013-02-22 17:25:00,
2013-02-22 11:30:00,64.7,61.4,29.94,North,32767,0.0,0.0,89,0.00,,,0.10,Wunderground v.1.15,2013-02-22 17:30:00,
2013-02-22 11:35:00,64.7,61.4,29.95,North,32767,0.0,0.0,89,0.00,,,0.10,Wunderground v.1.15,2013-02-22 17:35:00,
2013-02-22 11:40:00,64.6,61.3,29.94,North,32767,0.0,0.0,89,0.00,,,0.10,Wunderground v.1.15,2013-02-22 17:40:00,
2013-02-22 11:45:00,64.5,61.8,29.94,North,32767,0.0,0.0,91,0.00,,,0.10,Wunderground v.1.15,2013-02-22 17:45:00,
2013-02-22 11:50:00,64.4,61.7,29.94,North,32767,0.0,0.0,91,0.00,,,0.10,Wunderground v.1.15,2013-02-22 17:50:00,
2013-02-22 11:55:00,64.2,61.8,29.93,North,32767,0.0,0.0,92,0.00,,,0.11,Wunderground v.1.15,2013-02-22 17:55:00,
2013-02-22 12:00:00,64.0,62.2,29.94,North,32767,0.0,0.0,94,0.17,,,0.12,Wunderground v.1.15,2013-02-22 18:00:00,
2013-02-22 12:05:00,64.1,62.6,29.93,North,32767,0.0,0.0,95,0.08,,,0.12,Wunderground v.1.15,2013-02-22 18:05:00,
2013-02-22 12:10:00,64.8,63.6,29.92,North,32767,0.0,0.0,96,0.05,,,0.12,Wunderground v.1.15,2013-02-22 18:10:00,
2013-02-22 12:15:00,65.7,64.2,29.92,North,32767,0.0,0.0,95,0.00,,,0.12,Wunderground v.1.15,2013-02-22 18:15:00,
2013-02-22 12:25:00,66.0,63.6,29.93,North,32767,0.0,0.0,92,0.00,,,0.12,Wunderground v.1.15,2013-02-22 18:25:00,
2013-02-22 12:30:00,65.8,63.1,29.92,North,32767,0.0,0.0,91,0.00,,,0.12,Wunderground v.1.15,2013-02-22 18:30:00,
2013-02-22 12:35:00,65.8,63.1,29.92,North,32767,0.0,0.0,91,0.00,,,0.12,Wunderground v.1.15,2013-02-22 18:35:00,
2013-02-22 12:40:00,66.0,63.3,29.92,North,32767,0.0,0.0,91,0.00,,,0.12,Wunderground v.1.15,2013-02-22 18:40:00,
2013-02-22 12:45:00,66.3,63.6,29.92,North,32767,0.0,0.0,91,0.00,,,0.12,Wunderground v.1.15,2013-02-22 18:45:00,
2013-02-22 12:50:00,66.7,63.7,29.91,North,32767,0.0,0.0,90,0.00,,,0.12,Wunderground v.1.15,2013-02-22 18:50:00,
2013-02-22 12:55:00,67.0,64.3,29.91,North,32767,0.0,0.0,91,0.00,,,0.12,Wunderground v.1.15,2013-02-22 18:55:00,
2013-02-22 13:00:00,67.0,63.6,29.91,North,32767,0.0,0.0,89,0.00,,,0.12,Wunderground v.1.15,2013-02-22 19:00:00,
2013-02-22 13:05:00,67.0,63.6,29.91,North,32767,0.0,0.0,89,0.00,,,0.12,Wunderground v.1.15,2013-02-22 19:05:00,
2013-02-22 13:10:00,66.9,63.9,29.91,North,32767,0.0,0.0,90,0.00,,,0.12,Wunderground v.1.15,2013-02-22 19:10:00,
2013-02-22 13:15:00,67.0,64.0,29.90,North,32767,0.0,0.0,90,0.00,,,0.12,Wunderground v.1.15,2013-02-22 19:15:00,
2013-02-22 13:20:00,67.3,63.9,29.90,North,32767,0.0,0.0,89,0.00,,,0.12,Wunderground v.1.15,2013-02-22 19:20:00,
2013-02-22 13:25:00,67.5,64.5,29.90,North,32767,0.0,0.0,90,0.00,,,0.12,Wunderground v.1.15,2013-02-22 19:25:00,
2013-02-22 13:30:00,67.6,64.2,29.90,North,32767,0.0,0.0,89,0.00,,,0.12,Wunderground v.1.15,2013-02-22 19:30:00,
2013-02-22 13:35:00,67.7,64.3,29.89,North,32767,0.0,0.0,89,0.00,,,0.12,Wunderground v.1.15,2013-02-22 19:35:00,
2013-02-22 13:40:00,67.7,64.3,29.89,North,32767,0.0,0.0,89,0.00,,,0.12,Wunderground v.1.15,2013-02-22 19:40:00,
2013-02-22 13:45:00,67.7,64.7,29.89,North,32767,0.0,0.0,90,0.00,,,0.12,Wunderground v.1.15,2013-02-22 19:45:00,
2013-02-22 13:50:00,67.8,64.8,29.89,North,32767,0.0,0.0,90,0.00,,,0.12,Wunderground v.1.15,2013-02-22 19:50:00,
2013-02-22 13:55:00,67.7,64.7,29.88,North,32767,0.0,0.0,90,0.00,,,0.12,Wunderground v.1.15,2013-02-22 19:55:00,
2013-02-22 14:00:00,67.6,64.6,29.88,North,32767,0.0,0.0,90,0.00,,,0.12,Wunderground v.1.15,2013-02-22 20:00:00,
2013-02-22 14:05:00,67.6,64.9,29.88,North,32767,0.0,0.0,91,0.00,,,0.12,Wunderground v.1.15,2013-02-22 20:05:00,
2013-02-22 14:10:00,67.7,64.7,29.88,North,32767,0.0,0.0,90,0.00,,,0.12,Wunderground v.1.15,2013-02-22 20:10:00,
2013-02-22 14:15:00,67.8,64.8,29.88,North,32767,0.0,0.0,90,0.00,,,0.12,Wunderground v.1.15,2013-02-22 20:15:00,
2013-02-22 14:20:00,68.0,65.0,29.88,North,32767,0.0,0.0,90,0.00,,,0.12,Wunderground v.1.15,2013-02-22 20:20:00,
2013-02-22 14:25:00,68.1,65.4,29.88,North,32767,0.0,0.0,91,0.00,,,0.12,Wunderground v.1.15,2013-02-22 20:25:00,
2013-02-22 14:30:00,68.1,65.4,29.88,North,32767,0.0,0.0,91,0.00,,,0.12,Wunderground v.1.15,2013-02-22 20:30:00,
2013-02-22 14:35:00,68.0,65.3,29.88,North,32767,0.0,0.0,91,0.00,,,0.12,Wunderground v.1.15,2013-02-22 20:35:00,
2013-02-22 14:40:00,68.0,65.3,29.88,North,32767,0.0,0.0,91,0.00,,,0.12,Wunderground v.1.15,2013-02-22 20:40:00,
2013-02-22 14:45:00,68.0,65.3,29.88,North,32767,0.0,0.0,91,0.00,,,0.12,Wunderground v.1.15,2013-02-22 20:45:00,
2013-02-22 14:50:00,67.9,65.2,29.88,North,32767,0.0,0.0,91,0.00,,,0.12,Wunderground v.1.15,2013-02-22 20:50:00,
2013-02-22 14:55:00,67.9,65.2,29.88,North,32767,0.0,0.0,91,0.00,,,0.12,Wunderground v.1.15,2013-02-22 20:55:00,
2013-02-22 15:00:00,68.0,65.6,29.87,North,32767,0.0,0.0,92,0.00,,,0.12,Wunderground v.1.15,2013-02-22 21:00:00,
2013-02-22 15:05:00,68.1,65.7,29.87,North,32767,0.0,0.0,92,0.00,,,0.12,Wunderground v.1.15,2013-02-22 21:05:00,
2013-02-22 15:10:00,68.2,65.8,29.87,North,32767,0.0,0.0,92,0.00,,,0.12,Wunderground v.1.15,2013-02-22 21:10:00,
2013-02-22 15:15:00,68.4,66.3,29.86,North,32767,0.0,0.0,93,0.00,,,0.12,Wunderground v.1.15,2013-02-22 21:15:00,
2013-02-22 15:20:00,68.5,66.4,29.87,North,32767,0.0,0.0,93,0.00,,,0.12,Wunderground v.1.15,2013-02-22 21:20:00,
2013-02-22 15:25:00,68.4,66.3,29.87,North,32767,0.0,0.0,93,0.00,,,0.12,Wunderground v.1.15,2013-02-22 21:25:00,
2013-02-22 15:30:00,68.4,66.6,29.87,North,32767,0.0,0.0,94,0.00,,,0.12,Wunderground v.1.15,2013-02-22 21:30:00,
2013-02-22 15:35:00,68.3,66.5,29.87,North,32767,0.0,0.0,94,0.00,,,0.12,Wunderground v.1.15,2013-02-22 21:35:00,
2013-02-22 15:40:00,68.2,66.4,29.87,North,32767,0.0,0.0,94,0.00,,,0.12,Wunderground v.1.15,2013-02-22 21:40:00,
2013-02-22 15:45:00,68.2,66.4,29.86,North,32767,0.0,0.0,94,0.00,,,0.12,Wunderground v.1.15,2013-02-22 21:45:00,
2013-02-22 15:50:00,68.1,66.6,29.87,North,32767,0.0,0.0,95,0.00,,,0.12,Wunderground v.1.15,2013-02-22 21:50:00,
2013-02-22 15:55:00,68.0,66.5,29.86,North,32767,0.0,0.0,95,0.00,,,0.12,Wunderground v.1.15,2013-02-22 21:55:00,
2013-02-22 16:00:00,67.9,66.4,29.85,North,32767,0.0,0.0,95,0.00,,,0.12,Wunderground v.1.15,2013-02-22 22:00:00,
2013-02-22 16:05:00,67.9,66.4,29.86,North,32767,0.0,0.0,95,0.00,,,0.12,Wunderground v.1.15,2013-02-22 22:05:00,
2013-02-22 16:10:00,67.9,66.4,29.85,North,32767,0.0,0.0,95,0.00,,,0.12,Wunderground v.1.15,2013-02-22 22:10:00,
2013-02-22 16:15:00,67.8,66.3,29.86,North,32767,0.0,0.0,95,0.00,,,0.12,Wunderground v.1.15,2013-02-22 22:15:00,
2013-02-22 16:20:00,67.7,66.2,29.86,North,32767,0.0,0.0,95,0.00,,,0.12,Wunderground v.1.15,2013-02-22 22:20:00,
2013-02-22 16:25:00,67.6,66.4,29.87,North,32767,0.0,0.0,96,0.00,,,0.12,Wunderground v.1.15,2013-02-22 22:25:00,
2013-02-22 16:30:00,67.4,66.2,29.87,North,32767,0.0,0.0,96,0.00,,,0.12,Wunderground v.1.15,2013-02-22 22:30:00,
2013-02-22 16:40:00,67.2,66.0,29.87,North,32767,0.0,0.0,96,0.00,,,0.12,Wunderground v.1.15,2013-02-22 22:40:00,
2013-02-22 16:45:00,67.1,65.9,29.88,North,32767,0.0,0.0,96,0.00,,,0.12,Wunderground v.1.15,2013-02-22 22:45:00,
2013-02-22 16:50:00,67.0,65.8,29.88,North,32767,0.0,0.0,96,0.00,,,0.12,Wunderground v.1.15,2013-02-22 22:50:00,
2013-02-22 16:55:00,66.9,66.0,29.88,North,32767,0.0,0.0,97,0.00,,,0.12,Wunderground v.1.15,2013-02-22 22:55:00,
2013-02-22 17:05:00,66.8,65.9,29.89,North,32767,0.0,0.0,97,0.00,,,0.12,Wunderground v.1.15,2013-02-22 23:05:00,
2013-02-22 17:10:00,66.8,65.9,29.88,North,32767,0.0,0.0,97,0.00,,,0.12,Wunderground v.1.15,2013-02-22 23:10:00,
2013-02-22 17:15:00,66.8,65.9,29.89,North,32767,0.0,0.0,97,0.00,,,0.12,Wunderground v.1.15,2013-02-22 23:15:00,
2013-02-22 17:20:00,66.7,65.8,29.89,North,32767,0.0,0.0,97,0.00,,,0.12,Wunderground v.1.15,2013-02-22 23:20:00,
2013-02-22 17:25:00,66.6,65.7,29.89,North,32767,0.0,0.0,97,0.00,,,0.12,Wunderground v.1.15,2013-02-22 23:25:00,
2013-02-22 17:30:00,66.5,65.6,29.89,North,32767,0.0,0.0,97,0.00,,,0.12,Wunderground v.1.15,2013-02-22 23:30:00,
2013-02-22 17:35:00,66.4,65.5,29.89,North,32767,0.0,0.0,97,0.00,,,0.12,Wunderground v.1.15,2013-02-22 23:35:00,
2013-02-22 17:40:00,66.2,65.3,29.89,North,32767,0.0,0.0,97,0.00,,,0.12,Wunderground v.1.15,2013-02-22 23:40:00,
2013-02-22 17:50:00,65.8,64.9,29.89,North,32767,0.0,0.0,97,0.00,,,0.12,Wunderground v.1.15,2013-02-22 23:50:00,
2013-02-22 17:55:00,65.7,64.8,29.89,North,32767,0.0,0.0,97,0.00,,,0.12,Wunderground v.1.15,2013-02-22 23:55:00,
2013-02-22 18:00:00,65.7,64.8,29.89,North,32767,0.0,0.0,97,0.00,,,0.13,Wunderground v.1.15,2013-02-23 00:00:00,
2013-02-22 18:05:00,65.6,64.7,29.89,North,32767,0.0,0.0,97,0.00,,,0.13,Wunderground v.1.15,2013-02-23 00:05:00,
2013-02-22 18:10:00,65.5,64.9,29.89,North,32767,0.0,0.0,98,0.00,,,0.13,Wunderground v.1.15,2013-02-23 00:10:00,
2013-02-22 18:15:00,65.4,64.8,29.89,North,32767,0.0,0.0,98,0.00,,,0.13,Wunderground v.1.15,2013-02-23 00:15:00,
2013-02-22 18:20:00,65.3,64.4,29.89,North,32767,0.0,0.0,97,0.00,,,0.13,Wunderground v.1.15,2013-02-23 00:20:00,
2013-02-22 18:25:00,65.0,64.1,29.89,North,32767,0.0,0.0,97,0.00,,,0.13,Wunderground v.1.15,2013-02-23 00:25:00,
2013-02-22 18:30:00,64.7,64.1,29.89,North,32767,0.0,0.0,98,0.00,,,0.13,Wunderground v.1.15,2013-02-23 00:30:00,
2013-02-22 18:35:00,64.4,63.5,29.89,North,32767,0.0,0.0,97,0.00,,,0.13,Wunderground v.1.15,2013-02-23 00:35:00,
2013-02-22 18:40:00,64.3,63.4,29.89,North,32767,0.0,0.0,97,0.00,,,0.13,Wunderground v.1.15,2013-02-23 00:40:00,
2013-02-22 18:45:00,64.2,63.3,29.88,North,32767,0.0,0.0,97,0.00,,,0.13,Wunderground v.1.15,2013-02-23 00:45:00,
2013-02-22 18:50:00,64.2,63.6,29.88,North,32767,0.0,0.0,98,0.00,,,0.13,Wunderground v.1.15,2013-02-23 00:50:00,
2013-02-22 18:55:00,64.1,63.5,29.88,North,32767,0.0,0.0,98,0.00,,,0.13,Wunderground v.1.15,2013-02-23 00:55:00,
2013-02-22 19:00:00,64.1,63.5,29.88,North,32767,0.0,0.0,98,0.00,,,0.13,Wunderground v.1.15,2013-02-23 01:00:00,
2013-02-22 19:05:00,64.0,63.4,29.88,North,32767,0.0,0.0,98,0.00,,,0.13,Wunderground v.1.15,2013-02-23 01:05:00,
2013-02-22 19:10:00,64.0,63.4,29.88,North,32767,0.0,0.0,98,0.00,,,0.13,Wunderground v.1.15,2013-02-23 01:10:00,
2013-02-22 19:15:00,63.9,63.3,29.88,North,32767,0.0,0.0,98,0.00,,,0.13,Wunderground v.1.15,2013-02-23 01:15:00,
2013-02-22 19:20:00,63.8,63.2,29.88,North,32767,0.0,0.0,98,0.00,,,0.13,Wunderground v.1.15,2013-02-23 01:20:00,
2013-02-22 19:25:00,63.8,63.2,29.88,North,32767,0.0,0.0,98,0.00,,,0.13,Wunderground v.1.15,2013-02-23 01:25:00,
2013-02-22 19:30:00,63.7,63.1,29.89,North,32767,0.0,0.0,98,0.00,,,0.13,Wunderground v.1.15,2013-02-23 01:30:00,
2013-02-22 19:35:00,63.7,63.1,29.89,North,32767,0.0,0.0,98,0.00,,,0.13,Wunderground v.1.15,2013-02-23 01:35:00,
2013-02-22 19:40:00,63.5,62.9,29.89,North,32767,0.0,0.0,98,0.00,,,0.13,Wunderground v.1.15,2013-02-23 01:40:00,
2013-02-22 19:45:00,63.4,62.8,29.89,North,32767,0.0,0.0,98,0.00,,,0.13,Wunderground v.1.15,2013-02-23 01:45:00,
2013-02-22 19:50:00,63.3,62.7,29.89,North,32767,0.0,0.0,98,0.00,,,0.13,Wunderground v.1.15,2013-02-23 01:50:00,
2013-02-22 19:55:00,63.2,62.6,29.89,North,32767,0.0,0.0,98,0.00,,,0.13,Wunderground v.1.15,2013-02-23 01:55:00,
2013-02-22 20:00:00,63.2,62.6,29.88,North,32767,0.0,0.0,98,0.00,,,0.13,Wunderground v.1.15,2013-02-23 02:00:00,
2013-02-22 20:05:00,63.1,62.5,29.88,North,32767,0.0,0.0,98,0.00,,,0.13,Wunderground v.1.15,2013-02-23 02:05:00,
2013-02-22 20:10:00,63.1,62.5,29.88,North,32767,0.0,0.0,98,0.00,,,0.13,Wunderground v.1.15,2013-02-23 02:10:00,
2013-02-22 20:15:00,63.1,62.5,29.88,North,32767,0.0,0.0,98,0.00,,,0.13,Wunderground v.1.15,2013-02-23 02:15:00,
2013-02-22 20:20:00,63.0,62.4,29.88,North,32767,0.0,0.0,98,0.00,,,0.13,Wunderground v.1.15,2013-02-23 02:20:00,
2013-02-22 20:25:00,63.0,62.4,29.88,North,32767,0.0,0.0,98,0.00,,,0.13,Wunderground v.1.15,2013-02-23 02:25:00,
2013-02-22 20:30:00,62.9,62.3,29.89,North,32767,0.0,0.0,98,0.00,,,0.13,Wunderground v.1.15,2013-02-23 02:30:00,
2013-02-22 20:35:00,62.9,62.3,29.88,North,32767,0.0,0.0,98,0.00,,,0.13,Wunderground v.1.15,2013-02-23 02:35:00,
2013-02-22 20:40:00,62.9,62.3,29.89,North,32767,0.0,0.0,98,0.00,,,0.13,Wunderground v.1.15,2013-02-23 02:40:00,
2013-02-22 20:45:00,63.0,62.4,29.89,North,32767,0.0,0.0,98,0.00,,,0.13,Wunderground v.1.15,2013-02-23 02:45:00,
2013-02-22 20:50:00,63.0,62.4,29.88,North,32767,0.0,0.0,98,0.00,,,0.13,Wunderground v.1.15,2013-02-23 02:50:00,
2013-02-22 20:55:00,63.0,62.4,29.89,North,32767,0.0,0.0,98,0.00,,,0.13,Wunderground v.1.15,2013-02-23 02:55:00,
2013-02-22 21:00:00,63.0,62.4,29.89,North,32767,0.0,0.0,98,0.00,,,0.13,Wunderground v.1.15,2013-02-23 03:00:00,
2013-02-22 21:05:00,62.9,62.3,29.89,North,32767,0.0,0.0,98,0.00,,,0.13,Wunderground v.1.15,2013-02-23 03:05:00,
2013-02-22 21:15:00,62.9,62.3,29.89,North,32767,0.0,0.0,98,0.00,,,0.13,Wunderground v.1.15,2013-02-23 03:15:00,
2013-02-22 21:20:00,62.9,62.3,29.89,North,32767,0.0,0.0,98,0.00,,,0.13,Wunderground v.1.15,2013-02-23 03:20:00,
2013-02-22 21:25:00,62.9,62.3,29.89,North,32767,0.0,0.0,98,0.00,,,0.13,Wunderground v.1.15,2013-02-23 03:25:00,
2013-02-22 21:30:00,62.9,62.3,29.89,North,32767,0.0,0.0,98,0.00,,,0.13,Wunderground v.1.15,2013-02-23 03:30:00,
2013-02-22 21:35:00,62.8,62.2,29.89,North,32767,0.0,0.0,98,0.00,,,0.13,Wunderground v.1.15,2013-02-23 03:35:00,
2013-02-22 21:40:00,62.8,62.2,29.89,North,32767,0.0,0.0,98,0.00,,,0.13,Wunderground v.1.15,2013-02-23 03:40:00,
2013-02-22 21:45:00,62.7,62.1,29.89,North,32767,0.0,0.0,98,0.00,,,0.13,Wunderground v.1.15,2013-02-23 03:45:00,
2013-02-22 21:50:00,62.7,62.1,29.89,North,32767,0.0,0.0,98,0.00,,,0.13,Wunderground v.1.15,2013-02-23 03:50:00,
2013-02-22 21:55:00,62.7,62.1,29.89,North,32767,0.0,0.0,98,0.00,,,0.13,Wunderground v.1.15,2013-02-23 03:55:00,
2013-02-22 22:00:00,62.7,62.1,29.89,North,32767,0.0,0.0,98,0.00,,,0.13,Wunderground v.1.15,2013-02-23 04:00:00,
2013-02-22 22:05:00,62.5,61.9,29.89,North,32767,0.0,0.0,98,0.00,,,0.13,Wunderground v.1.15,2013-02-23 04:05:00,
2013-02-22 22:10:00,62.4,61.8,29.89,North,32767,0.0,0.0,98,0.00,,,0.13,Wunderground v.1.15,2013-02-23 04:10:00,
2013-02-22 22:15:00,62.3,61.7,29.89,North,32767,0.0,0.0,98,0.00,,,0.13,Wunderground v.1.15,2013-02-23 04:15:00,
2013-02-22 22:20:00,62.1,61.5,29.89,North,32767,0.0,0.0,98,0.00,,,0.13,Wunderground v.1.15,2013-02-23 04:20:00,
2013-02-22 22:25:00,62.0,61.4,29.89,North,32767,0.0,0.0,98,0.00,,,0.13,Wunderground v.1.15,2013-02-23 04:25:00,
2013-02-22 22:35:00,61.7,61.1,29.89,North,32767,0.0,0.0,98,0.00,,,0.13,Wunderground v.1.15,2013-02-23 04:35:00,
2013-02-22 22:40:00,61.6,61.0,29.89,North,32767,0.0,0.0,98,0.00,,,0.13,Wunderground v.1.15,2013-02-23 04:40:00,
2013-02-22 22:45:00,61.5,60.9,29.89,North,32767,0.0,0.0,98,0.00,,,0.13,Wunderground v.1.15,2013-02-23 04:45:00,
2013-02-22 22:50:00,61.4,60.8,29.89,North,32767,0.0,0.0,98,0.00,,,0.13,Wunderground v.1.15,2013-02-23 04:50:00,
2013-02-22 23:00:00,61.3,60.7,29.88,North,32767,0.0,0.0,98,0.00,,,0.13,Wunderground v.1.15,2013-02-23 05:00:00,
2013-02-22 23:05:00,61.3,60.7,29.88,North,32767,0.0,0.0,98,0.00,,,0.13,Wunderground v.1.15,2013-02-23 05:05:00,
2013-02-22 23:15:00,61.2,60.6,29.87,North,32767,0.0,0.0,98,0.00,,,0.13,Wunderground v.1.15,2013-02-23 05:15:00,
2013-02-22 23:20:00,61.1,60.5,29.87,North,32767,0.0,0.0,98,0.00,,,0.13,Wunderground v.1.15,2013-02-23 05:20:00,
2013-02-22 23:25:00,61.1,60.5,29.86,North,32767,0.0,0.0,98,0.00,,,0.13,Wunderground v.1.15,2013-02-23 05:25:00,
2013-02-22 23:30:00,61.1,60.5,29.88,North,32767,0.0,0.0,98,0.00,,,0.13,Wunderground v.1.15,2013-02-23 05:30:00,
2013-02-22 23:35:00,61.1,60.5,29.88,North,32767,0.0,0.0,98,0.00,,,0.13,Wunderground v.1.15,2013-02-23 05:35:00,
2013-02-22 23:40:00,61.1,60.5,29.88,North,32767,0.0,0.0,98,0.00,,,0.13,Wunderground v.1.15,2013-02-23 05:40:00,
2013-02-22 23:45:00,61.1,60.5,29.88,North,32767,0.0,0.0,98,0.00,,,0.13,Wunderground v.1.15,2013-02-23 05:45:00,
2013-02-22 23:50:00,61.1,60.5,29.88,North,32767,0.0,0.0,98,0.00,,,0.13,Wunderground v.1.15,2013-02-23 05:50:00,
2013-02-22 23:55:00,61.1,60.5,29.87,North,32767,0.0,0.0,98,0.00,,,0.13,Wunderground v.1.15,2013-02-23 05:55:00,